Location: Bratislava
(48.1500°N, 17.1170°E)
Time: 21:32:47
(UTC+02:00)

Envisat - Visible Passes

Search period start: 20 October 2019 00:00
Search period end: 29 October 2019 23:00
Orbit: 764 x 766 km, 98.1° (Epoch: 20 October)

Date Brightness Start Highest point End Pass type
(mag) Time Alt. Az. Time Alt. Az. Time Alt. Az.
20 Oct 6.1 06:35:39 10° NE 06:38:55 17° E 06:42:10 10° SE visible
20 Oct 4.5 19:31:58 10° SSW 19:36:41 38° W 19:41:27 10° NNW visible
21 Oct 3.2 18:54:42 10° S 18:59:48 79° WSW 19:04:54 10° NNW visible
21 Oct 6.2 20:38:09 10° WSW 20:39:39 11° W 20:41:09 10° WNW visible
22 Oct 3.2 18:18:11 10° SE 18:23:05 51° ENE 18:28:01 10° N visible
22 Oct 5.4 19:58:21 10° SW 20:02:24 24° W 20:06:28 10° NW visible
23 Oct 6.3 06:25:01 10° ENE 06:27:30 14° E 06:29:59 10° ESE visible
23 Oct 4.1 19:20:28 10° S 19:25:22 48° W 19:30:18 10° NNW visible
24 Oct 3.0 18:43:27 10° SSE 18:48:31 84° ENE 18:53:38 10° NNW visible
24 Oct 6.0 20:25:33 10° WSW 20:28:13 14° W 20:30:54 10° NW visible
25 Oct 5.9 06:49:21 10° NE 06:53:20 23° E 06:57:17 10° SE visible
25 Oct 5.0 19:46:39 10° SSW 19:51:02 29° W 19:55:27 10° NW visible
26 Oct 6.6 06:14:59 10° ENE 06:16:04 11° E 06:17:09 10° E visible
26 Oct 3.6 19:09:03 10° S 19:14:03 59° W 19:19:06 10° NNW visible
27 Oct 3.0 17:32:14 10° SSE 17:37:16 69° ENE 17:42:20 10° N visible
27 Oct 5.8 19:13:26 10° SW 19:16:48 18° W 19:20:12 10° NW visible
28 Oct 6.0 05:38:26 10° NE 05:41:57 18° E 05:45:25 10° SE visible
28 Oct 4.6 18:35:03 10° SSW 18:39:41 35° W 18:44:22 10° NNW visible
29 Oct 3.2 17:57:41 10° S 18:02:46 73° WSW 18:07:52 10° NNW visible
29 Oct 6.3 19:42:14 10° W 19:42:41 10° W 19:43:09 10° W visible
